Regional Weather Roundup
Issued by NWS Upton, NY

Current Version | Previous Version | Graphics & Text | Print | Product List | Glossary Off
Versions: 1 2 3 4 5 6 7 8 9 10 11 12 13 14 15 16 17 18 19 20 21 22 23 24 25 26 27

000
ASUS41 KOKX 230009
RWROKX

REGIONAL WEATHER ROUNDUP
NATIONAL WEATHER SERVICE NEW YORK NY
800 PM EDT FRI SEP 22 2017

NOTE: "FAIR" INDICATES FEW OR NO CLOUDS BELOW 12,000 FEET WITH NO
SIGNIFICANT WEATHER AND/OR OBSTRUCTIONS TO VISIBILITY.

NYZ071-072-176-178-NJZ106-104-230100-
NEW YORK CITY METRO AREA

CITY           SKY/WX    TMP DP  RH WIND       PRES   REMARKS
Central Park   PTCLDY    77  55  46 VRB6      29.99R
Bronx Bot Gard   N/A     75  52  43 NW5       29.99R
LaGuardia APRT MOCLDY    77  56  48 N12G20    29.95R
Kennedy INTL   MOCLDY    77  56  48 N18       29.95R
Breezy Point     N/A     75 N/A N/A N16G24      N/A
Newark/Liberty MOCLDY    78  55  44 N15       29.95R
Teterboro      PTCLDY    77  55  46 N7        29.95R
$$

NYZ177-179-078>081-230100-
LONG ISLAND NEW YORK

CITY           SKY/WX    TMP DP  RH WIND       PRES   REMARKS
Jones Beach      N/A     75 N/A N/A N15         N/A
Matinecock PT    N/A     73 N/A N/A N16         N/A
Farmingdale    CLOUDY    75  61  61 NE10      29.94R
MacArthur/ISP  MOCLDY    74  59  59 N16       29.93R
Shirley        CLOUDY    74  62  66 N9G21     29.94R
Mt Sinai Harb    N/A    N/A N/A N/A N14         N/A
Westhampton    CLOUDY    70  58  65 N21G29    29.94R
East Hampton   CLOUDY    65  59  79 N17G28    29.92R
Montauk          N/A     65  61  87 N17G28    29.92R
$$

NYZ052-065-067-230100-
HUDSON VALLEY

CITY           SKY/WX    TMP DP  RH WIND       PRES   REMARKS
White Plains   PTCLDY    73  52  47 N15       29.97R
Larchmont Harb   N/A     75 N/A N/A NW14G20     N/A
Croton On Huds   N/A     73 N/A N/A N6G14       N/A
Newburgh       PTCLDY    73  52  46 NE14      30.02R
Montgomery     CLEAR     66  55  67 N6        30.00R
Poughkeepsie   CLEAR     71  48  43 NE3       30.00R
Albany         PTCLDY    68  52  56 NW6       30.05R
$$

NJZ001-105-106-008-010-013-015-019>022-104-230100-
NEW JERSEY

CITY           SKY/WX    TMP DP  RH WIND       PRES   REMARKS
Newark/Liberty MOCLDY    78  55  44 N15       29.95R
Teterboro      PTCLDY    77  55  46 N7        29.95R
Caldwell       CLEAR     75  58  55 NE5       29.98R
Somerville     NOT AVBL
Linden         FAIR      78  55  45 N9        29.96R
Perth Amboy      N/A     77 N/A N/A N12         N/A
Sussex         PTCLDY    71  59  65 N3        30.00R
Andover          N/A     68  62  81 CALM      30.01R
Trenton        CLEAR     75  58  55 N6        29.96R
Millville      PTCLDY    70  64  81 W7        29.96R
Atlantic City  CLEAR     71  64  78 W7        29.94S
Wrightstown    NOT AVBL
Toms River     CLEAR     73  62  68 N6        29.95R
Belmar         MOCLDY    75  60  59 N9        29.96R
$$

PAZ047>061-062-071-230100-
EASTERN PENNSYLVANIA

CITY           SKY/WX    TMP DP  RH WIND       PRES   REMARKS
Philadelphia   MOCLDY    78  56  46 NW7       29.96R
Allentown      CLEAR     72  52  49 N3        30.00R
Scranton       CLEAR     74  49  41 NE8       30.05R
$$

CTZ002-004>006-009-010-012-RIZ004-006-007-MAZ004-011-015-230100-
SOUTHERN NEW ENGLAND
 IN CT

CITY           SKY/WX    TMP DP  RH WIND       PRES   REMARKS
Bradley INTL   MOCLDY    71  56  58 N15       30.00R
Hartford       CLOUDY    71  57  61 N15       29.98R
Danbury        MOCLDY    72  55  55 N8        30.00R
Wtrbury/Oxford MOCLDY    70  55  59 N17G24    30.00R
Norwalk Harbor   N/A     73 N/A N/A N12         N/A
Bridgeport     PTCLDY    75  57  53 N17G26    29.95R
Meriden        CLOUDY    72  58  61 N12G25    29.96R
New Haven      PTCLDY    73  58  59 N17G25    29.94R
Chester        MOCLDY    70  59  68 N15G25    29.96R
Groton         CLOUDY    66  59  78 N16G30    29.92R
Wilimantic     CLOUDY    67  59  75 N16G25    29.98R

 IN RI

CITY           SKY/WX    TMP DP  RH WIND       PRES   REMARKS
Providence     LGT RAIN  61  60  97 N21G31    29.96R
Block Island   CLOUDY    62  59  90 N24G37    29.90R
Westerly       LGT RAIN  64  60  87 N13G24    29.94R
 IN MA

CITY           SKY/WX    TMP DP  RH WIND       PRES   REMARKS
Boston         DRIZZLE   60  57  89 N22G36    30.00R
Worcester      CLOUDY    60  54  80 N16G24    30.03R
Westfield      CLOUDY    72  54  53 N10       30.01R
Provincetown   CLOUDY    60  59  96 NE21G28   29.93R FOG
Nantucket      LGT RAIN  63  63 100 NE24G36   29.81R FOG
$$

ANZ330-335-338-340-345-350-353-355-230100-
COASTAL MARINE OBSERVATIONS


STATION/POSITION TIME  SKY/WX   TEMP    WIND        PRES    VSBY  WAVE
                                AIR SEA DIR/SP/G                  HT/PER
                 (UTC)          (F)     (DEG/KT/KT) (MB)    (MI)  (FT/S)
NY HARB ENTRANCE 2250            75 70  350/ 12/ 16 1012.3          5/10
20 S FIRE ISLAND 2250            70 67   30/ 10/ 12 1012.6          7/ 9
GREAT SOUTH BAY  2315            74 69   10/ 14/ 17   N/A
23 SSW MONTAUK P 2250            64 65              1011.7          8/ 7
15 E BARNEGAT LI 2230               69                N/A           7/10
HUDSON CANYON    2250            67 69   10/ 27/ 33 1011.0         10/ 9
KINGS POINT      2330            76 71   40/ 15/ 18 1014.7
EXECUTION ROCKS  2345            75      10/ 14/ 19   N/A
WESTERN LI SOUND NOT AVBL
CENTRAL LI SOUND NOT AVBL
EASTERN LI SOUND NOT AVBL
ROBBINS REEF     2330            78     360/ 10/ 15 1014.6
$$


>>>>>>>>>>>>>>>>>>>>>>>>>>>> KEY <<<<<<<<<<<<<<<<<<<<<<<<<<<
>                                                          <
>     SKY/WX - Sky Condition/Present Weather               <
>     TMP    - Temperature in Fahrenheit                   <
>     DP     - Dew Point in Fahrenheit                     <
>     RH     - Relative Humidity in Percent                <
>     WIND   - Direction (from) and Speed in MPH           <
>     PRES   - Mean Sea Level Pressure (inches of Hg)      <
>     WCI    - Wind Chill Index                            <
>     VSB    - VISIBILITY IN MILES                         <
>     HX     - HEAT INDEX                                  <
>     TC     - TEMPERATURE IN CELSIUS                      <
>     VRB    - VARIABLE WIND DIRECTION                     <
>                                                          <
>>>>>>>>>>>>>>>>>>>>>>>>>>>> KEY <<<<<<<<<<<<<<<<<<<<<<<<<<<




USA.gov is the U.S. government's official web portal to all federal, state and local government web resources and services.